Location: Fort Worth, Tx
(32.7431°N, 97.3695°W)
Time: 05:39:54
(UTC-05:00)

Altair - Pass Details

Date: 07 October 2023
Orbit: 1501 x 1682 km, 47.2° (Epoch: 06 December)

Event Time Altitude Azimuth Distance (km) Brightness Sun altitude
Rises 10:07:46 0° 304° (NW) 4,902 9.6 19.6°
Reaches altitude 10° 10:11:00 10° 300° (WNW) 3,926 9.1 20.2°
Maximum altitude 10:20:42 54° 227° (SW) 1,981 8.2 22.1°
Drops below altitude 10° 10:30:24 10° 153° (SSE) 3,917 10.6 24.0°
Sets 10:33:38 0° 149° (SSE) 4,889 11.0 24.6°
